KE5SXT-2 Weather Reports


time (UTC)temp
F
wind
direction
speed
knots
gust
knots
rain 1hr
in
rain 24hr
in
rain mn
in
humidity
%
barometer
mb
20260507155021 62 0.0 0.0 0.00 0.00 0.00 55 1020.3
20260507154111 62 0.0 0.0 0.00 0.00 0.00 55 1020.4
20260507153021 62 0.0 0.0 0.00 0.00 0.00 56 1020.3
20260507152021 61 0.0 0.0 0.00 0.00 0.00 56 1020.5
20260507151046 61 0.0 0.0 0.00 0.00 0.00 58 1020.6
20260507150021 61 0.0 0.0 0.00 0.00 0.00 59 1020.7
20260507145021 60 0.0 0.0 0.00 0.00 0.00 60 1020.8
20260507144021 59 0.0 0.0 0.00 0.00 0.00 61 1020.6
20260507143021 59 0.0 0.0 0.00 0.00 0.00 61 1020.6
20260507142021 58 0.0 0.0 0.00 0.00 0.00 64 1020.5
20260507141021 58 0.0 0.0 0.00 0.00 0.00 64 1020.7
20260507140021 57 0.0 0.0 0.00 0.00 0.00 66 1020.8
20260507135046 57 0.0 0.0 0.00 0.00 0.00 67 1020.6
20260507134021 57 0.0 0.0 0.00 0.00 0.00 67 1020.4
20260507133021 57 0.0 0.0 0.00 0.00 0.00 67 1020.4
20260507132022 56 0.0 0.0 0.00 0.00 0.00 68 1020.4
20260507131046 56 0.0 0.0 0.00 0.00 0.00 69 1020.2
20260507130021 56 0.0 0.0 0.00 0.00 0.00 69 1020.1
20260507125020 56 0.0 0.0 0.00 0.00 0.00 69 1019.9
20260507124021 56 0.0 0.0 0.00 0.00 0.00 69 1019.6
20260507123021 55 0.0 0.0 0.00 0.00 0.00 68 1019.3
20260507122020 55 0.0 0.0 0.00 0.00 0.00 68 1019.1
20260507121021 56 0.0 0.0 0.00 0.00 0.00 68 1018.9
20260507120021 56 0.0 0.0 0.00 0.00 0.00 67 1018.9
20260507115020 56 0.0 0.0 0.00 0.00 0.00 67 1018.5
20260507114021 56 0.0 0.0 0.00 0.00 0.00 66 1018.6
20260507113021 57 0.0 0.0 0.00 0.00 0.00 66 1018.5
20260507112020 57 0.0 0.0 0.00 0.00 0.00 67 1018.4
20260507111046 57 0.0 0.0 0.00 0.00 0.00 67 1018.4
20260507110021 58 0.0 0.0 0.00 0.00 0.00 66 1018.5
20260507105020 58 0.0 0.0 0.00 0.00 0.00 68 1018.3
20260507104020 58 0.0 0.0 0.00 0.00 0.00 69 1018.0
20260507103020 58 0.0 0.0 0.00 0.00 0.00 71 1017.6
20260507102020 58 0.0 0.0 0.00 0.00 0.00 71 1017.7
20260507101045 59 0.0 0.0 0.00 0.00 0.00 72 1017.7
20260507100020 59 0.0 0.0 0.00 0.00 0.00 70 1017.6
20260507095020 60 0.0 0.0 0.00 0.00 0.00 71 1017.4
20260507094045 60 0.0 0.0 0.00 0.00 0.00 70 1017.2
20260507093020 60 0.0 0.0 0.00 0.00 0.00 69 1017.2
20260507092020 61 0.0 0.0 0.00 0.00 0.00 69 1017.0
20260507091020 61 0.0 0.0 0.00 0.00 0.00 72 1016.8
20260507090020 62 0.0 0.0 0.00 0.00 0.00 72 1016.7
20260507085020 62 0.0 0.0 0.00 0.00 0.00 70 1016.7
20260507084020 62 0.0 0.0 0.00 0.00 0.00 69 1016.7
20260507083020 63 0.0 0.0 0.00 0.00 0.00 69 1016.2
20260507082020 63 0.0 0.0 0.00 0.00 0.00 68 1016.5
20260507081021 63 0.0 0.0 0.00 0.00 0.00 67 1016.2
20260507080020 63 0.0 0.0 0.00 0.00 0.00 67 1016.1
20260507075020 64 0.0 0.0 0.00 0.00 0.00 66 1015.8
20260507074021 64 0.0 0.0 0.00 0.00 0.00 66 1016.0
20260507073020 64 0.0 0.0 0.00 0.00 0.00 65 1015.6
20260507072020 65 0.0 0.0 0.00 0.00 0.00 65 1015.6
20260507071020 65 0.0 0.0 0.00 0.00 0.00 64 1015.3
20260507070111 65 0.0 0.0 0.00 0.00 0.00 63 1015.5
20260507065020 66 0.0 0.0 0.00 0.00 0.00 63 1015.5
20260507064020 66 0.0 0.0 0.00 0.00 0.00 62 1015.4
20260507063020 67 0.0 0.0 0.00 0.00 0.00 61 1015.4
20260507062020 67 0.0 0.0 0.00 0.00 0.00 60 1015.5
20260507061020 67 0.0 0.0 0.00 0.00 0.00 59 1015.4
20260507060020 67 0.0 0.0 0.00 0.00 0.00 58 1015.3
20260507055022 68 0.0 0.0 0.00 0.00 0.00 57 1015.2
20260507054047 68 0.0 0.0 0.00 0.00 0.00 55 1015.0
20260507053022 68 0.0 0.0 0.00 0.00 0.00 53 1014.8
20260507052022 69 0.0 0.0 0.00 0.00 0.00 51 1014.8
20260507051022 69 0.0 0.0 0.00 0.00 0.00 49 1014.7
20260507050022 69 0.0 0.0 0.00 0.00 0.00 46 1014.7
20260507045021 69 0.0 0.0 0.00 0.00 0.00 43 1014.6
20260507044020 70 0.0 0.0 0.00 0.00 0.00 41 1014.4
20260507043045 71 0.0 0.0 0.00 0.00 0.00 40 1014.3
20260507042020 71 0.0 0.0 0.00 0.00 0.00 38 1014.2
20260507041020 72 0.0 0.0 0.00 0.00 0.00 37 1014.3
20260507040021 73 0.0 0.0 0.00 0.00 0.00 35 1014.1
20260507035021 73 0.0 0.0 0.00 0.00 0.00 34 1014.0
20260507034021 73 0.0 0.0 0.00 0.00 0.00 34 1013.8
20260507033021 73 0.0 0.0 0.00 0.00 0.00 34 1013.5
20260507032021 74 0.0 0.0 0.00 0.00 0.00 33 1013.4
20260507031020 75 0.0 0.0 0.00 0.00 0.00 32 1013.5
20260507030020 76 0.0 0.0 0.00 0.00 0.00 31 1013.7
20260507025046 76 0.0 0.0 0.00 0.00 0.00 30 1013.5
20260507024020 76 0.0 0.0 0.00 0.00 0.00 30 1013.4
20260507023021 77 0.0 0.0 0.00 0.00 0.00 30 1013.1
20260507022021 77 0.0 0.0 0.00 0.00 0.00 30 1013.0
20260507021020 78 0.0 0.0 0.00 0.00 0.00 29 1012.8
20260507020020 79 0.0 0.0 0.00 0.00 0.00 28 1012.6
20260507015020 79 0.0 0.0 0.00 0.00 0.00 27 1012.4
20260507014020 80 0.0 0.0 0.00 0.00 0.00 26 1012.1
20260507013020 81 0.0 0.0 0.00 0.00 0.00 26 1012.0
20260507012020 81 0.0 0.0 0.00 0.00 0.00 25 1012.1
20260507010045 82 0.0 0.0 0.00 0.00 0.00 24 1011.9
20260507005020 82 0.0 0.0 0.00 0.00 0.00 25 1011.9
20260507004020 82 0.0 0.0 0.00 0.00 0.00 24 1012.0
20260507003020 82 0.0 0.0 0.00 0.00 0.00 24 1012.0
20260507002020 82 0.0 0.0 0.00 0.00 0.00 24 1011.9
20260507001045 82 0.0 0.0 0.00 0.00 0.00 24 1011.9
20260507000020 82 0.0 0.0 0.00 0.00 0.00 25 1012.0
20260506235110 82 0.0 0.0 0.00 0.00 0.00 24 1012.0
20260506234020 82 0.0 0.0 0.00 0.00 0.00 24 1012.0
20260506233020 82 0.0 0.0 0.00 0.00 0.00 25 1011.9
20260506232024 82 0.0 0.0 0.00 0.00 0.00 25 1011.8
20260506231048 82 0.0 0.0 0.00 0.00 0.00 25 1011.7
20260506230023 82 0.0 0.0 0.00 0.00 0.00 25 1011.9
20260506225020 82 0.0 0.0 0.00 0.00 0.00 25 1011.8
20260506224020 82 0.0 0.0 0.00 0.00 0.00 25 1012.1
20260506223045 82 0.0 0.0 0.00 0.00 0.00 25 1012.3
20260506222022 82 0.0 0.0 0.00 0.00 0.00 26 1012.3
20260506221023 82 0.0 0.0 0.00 0.00 0.00 26 1012.1
20260506220020 81 0.0 0.0 0.00 0.00 0.00 27 1012.0
20260506215022 81 0.0 0.0 0.00 0.00 0.00 28 1012.0
20260506214022 80 0.0 0.0 0.00 0.00 0.00 28 1011.9
20260506213022 80 0.0 0.0 0.00 0.00 0.00 29 1012.0
20260506212022 80 0.0 0.0 0.00 0.00 0.00 29 1012.3
20260506211022 80 0.0 0.0 0.00 0.00 0.00 29 1012.3
20260506210022 79 0.0 0.0 0.00 0.00 0.00 29 1012.3
20260506205112 79 0.0 0.0 0.00 0.00 0.00 29 1012.5
20260506204022 79 0.0 0.0 0.00 0.00 0.00 31 1012.7
20260506203112 78 0.0 0.0 0.00 0.00 0.00 32 1012.7
20260506202022 77 0.0 0.0 0.00 0.00 0.00 31 1013.0
20260506201047 77 0.0 0.0 0.00 0.00 0.00 33 1013.3
20260506200022 77 0.0 0.0 0.00 0.00 0.00 33 1013.1
20260506195047 76 0.0 0.0 0.00 0.00 0.00 34 1013.2
20260506194021 76 0.0 0.0 0.00 0.00 0.00 35 1013.2
20260506193022 75 0.0 0.0 0.00 0.00 0.00 35 1013.2
20260506192021 75 0.0 0.0 0.00 0.00 0.00 36 1013.2
20260506191022 74 0.0 0.0 0.00 0.00 0.00 36 1013.5
20260506190023 74 0.0 0.0 0.00 0.00 0.00 37 1013.6
20260506185022 73 0.0 0.0 0.00 0.00 0.00 38 1013.7
20260506184137 73 0.0 0.0 0.00 0.00 0.00 38 1013.9
20260506183022 72 0.0 0.0 0.00 0.00 0.00 38 1013.8
20260506182021 71 0.0 0.0 0.00 0.00 0.00 40 1013.9
20260506181022 71 0.0 0.0 0.00 0.00 0.00 41 1013.9
20260506180021 71 0.0 0.0 0.00 0.00 0.00 41 1014.0
20260506175047 70 0.0 0.0 0.00 0.00 0.00 42 1014.0
20260506174021 69 0.0 0.0 0.00 0.00 0.00 44 1014.0
20260506173047 68 0.0 0.0 0.00 0.00 0.00 45 1014.0
20260506172021 68 0.0 0.0 0.00 0.00 0.00 46 1014.1
20260506171022 68 0.0 0.0 0.00 0.00 0.00 47 1014.1
20260506170021 67 0.0 0.0 0.00 0.00 0.00 47 1014.2
20260506165050 67 0.0 0.0 0.00 0.00 0.00 49 1014.1
20260506164021 67 0.0 0.0 0.00 0.00 0.00 49 1013.8
20260506163021 66 0.0 0.0 0.00 0.00 0.00 50 1014.0
20260506162021 66 0.0 0.0 0.00 0.00 0.00 51 1013.9
20260506161021 66 0.0 0.0 0.00 0.00 0.00 52 1013.8
20260506160021 66 0.0 0.0 0.00 0.00 0.00 52 1013.7